Japanese version Home page |
Updated on October 22, 2002 |
Profile
|
Orbital ElementsT 2002 June 16.4290 TT MPC q 3.230373 (2000.0) P Q Peri. 4.4548 +0.1828867 -0.0095205 Node 280.5488 -0.9300846 -0.3257087 e 1.0 Incl. 89.7253 -0.3185830 +0.9454222 From 55 observations 2002 May 16-Aug. 12.
|
Finding Charts
|
Magnitudes Graphm1 = 11.0 + 5 log d + 10.0 log r
|
The orbital elements are published on M.P.E.C. 2002-P66.
|